Regional Weather Roundup
Issued by NWS

Home | Current Version | Previous Version | Graphics & Text | Print | Product List | Glossary On
Versions: 1 2 3 4 5 6 7 8 9 10 11 12 13 14 15 16 17 18 19 20 21 22 23 24 25 26 27 28 29 30 31 32 33 34 35 36 37 38 39 40 41 42 43 44 45 46 47 48 49 50
000
ASUS43 KMPX 070101
RWRMN
WEATHER ROUNDUP FOR MINNESOTA
NATIONAL WEATHER SERVICE TWIN CITIES/CHANHASSEN MN
800 PM CDT FRI MAY 06 2016


NOTE: "FAIR" INDICATES FEW OR NO CLOUDS BELOW 12,000 FEET WITH NO
SIGNIFICANT WEATHER AND/OR OBSTRUCTIONS TO VISIBILITY. N/A MEANS
CURRENT SKY AND/OR WEATHER CONDITIONS ARE NOT AVAILABLE.

MNZ060>063-068>070-070200-
   Twin Cities Metro

CITY           SKY/WX    TMP DP  RH WIND       PRES   REMARKS
TWIN CITIES    CLOUDY    82  52  35 NW10      29.66R
ST PAUL        CLOUDY    82  53  36 NW8       29.65R
CRYSTAL        CLOUDY    83  52  34 NW6       29.65R
BLAINE         MOCLDY    82  52  34 NW9       29.66R
EDEN PRAIRIE   CLOUDY    83  52  34 W6        29.66R HAZE
SOUTH ST PAUL  CLOUDY    85  50  29 W9        29.65R
LAKE ELMO      FAIR      81  54  39 NW7       29.66R
$$
MNZ001>005-007-008-013>017-022>024-027-028-070200-
   Northwest Minnesota

CITY           SKY/WX    TMP DP  RH WIND       PRES   REMARKS
BEMIDJI        CLOUDY    58  37  44 N17G24    29.90R
HALLOCK        CLEAR     63  28  27 N7        29.93S
ROSEAU         PTCLDY    61  30  31 N12       29.92S
WARROAD        PTCLDY    61  34  36 NW10G22   29.92S
THIEF RVR FALL CLEAR     59  27  29 N14       29.96R
CROOKSTON      CLEAR     61  27  27 NE15G22   29.96R
FOSSTON        CLOUDY    59  23  25 N18G24    29.94R
DETROIT LAKES  CLOUDY    61  30  31 N12G31    29.91R
MOORHEAD       CLOUDY    63  25  23 N26G33    29.91F
PARK RAPIDS    PTCLDY    65  37  35 N22G32    29.85R
MAHNOMEN       FAIR      60  29  30 N21G30    29.91R
$$
MNZ006-009>011-018-025>026-070200-
   North Central Minnesota

CITY           SKY/WX    TMP DP  RH WIND       PRES   REMARKS
BAUDETTE       CLEAR     58  27  30 N17G24    29.88S
FLAG ISLAND    PTCLDY    59  30  33 N18G28    29.89S
INTL FALLS     HAZE      57  29  34 NW13      29.85R VSB 1
WASKISH        CLOUDY    59  30  33 NW9G22    29.90R
BIG FORK       CLOUDY    59  28  31 N14G25    29.85R HAZE
LONGVILLE      CLEAR     64  45  48 N9G17     29.83R
GRAND RAPIDS   CLEAR     63  41  45 NW24G30   29.82R
CRANE LAKE     CLOUDY    57  36  44 NW13G18   29.82R
ORR            CLOUDY    57  30  35 NW10G17   29.80R
COOK           LGT RAIN  59  39  47 NW10G18   29.82R
WALKER         FAIR      60  41  49 N20G30    29.85R
$$
MNZ012-019>021-037-070200-
   Northeast Minnesota

CITY           SKY/WX    TMP DP  RH WIND       PRES   REMARKS
DULUTH         CLOUDY    73  46  38 N21G30    29.71R
ELY            PTCLDY    63  45  51 N12G20    29.75R HAZE
HIBBING        CLEAR     62  43  49 N24G38    29.77R
EVELETH        CLEAR     64  39  39 NW15G26   29.78R
DULUTH HARBOR  CLOUDY    73  48  40 NW15G22   29.67R
TWO HARBORS      N/A     75  52  43 NW12G25   29.67R HAZE
SILVER BAY     CLOUDY    73  45  35 NW15G23   29.66R HAZE
GRAND MARAIS     N/A     75  47  36 N13G23    29.57R
G MARAIS ARPRT CLOUDY    70  43  37 NW14G24   29.67R
$$
MNZ029>031-032-039>041-046>048-054>057-064-070200-
   West Central Minnesota

CITY           SKY/WX    TMP DP  RH WIND       PRES   REMARKS
FERGUS FALLS   PTCLDY    64  36  34 N18G29    29.83R
WHEATON        CLOUDY    72  43  35 N25G35    29.87R
MORRIS         PTCLDY    75  45  33 N21G29    29.81R
ALEXANDRIA     PTCLDY    72  45  37 NW16G22   29.82R
ELBOW LAKE     FAIR      71  46  40 N16G24    29.84R
WADENA         CLEAR     70  45  40 N20       29.82R
GLENWOOD       PTCLDY    75  45  33 N17G24    29.80R
APPLETON       MOCLDY    77  43  29 N22G29    29.78R
BENSON         PTCLDY    75  39  27 NE17G32   29.78R
ORTONVILLE     CLOUDY    73  43  33 N22G30    29.82R
MADISON        CLOUDY    68  54  60 W16       29.85R
WILLMAR        FAIR      79  48  34 N20G25    29.76R
$$
MNZ033>034-036-042>043-049>051-058-059-070200-
   Central Minnesota

CITY           SKY/WX    TMP DP  RH WIND       PRES   REMARKS
ST CLOUD       PTCLDY    80  48  32 N14G26    29.71R
SAUK CENTRE      N/A     75  46  35 N15       29.77R
PAYNESVILLE    MOCLDY    78  45  30 N16       29.75R
AITKIN         CLEAR     72  43  35 NW6       29.75R
PINE RIVER     CLEAR     68  46  45 N17G31    29.84R
BRAINERD       CLEAR     70  45  40 N14G21    29.78R
STAPLES        CLEAR     72  41  33 NW21      29.80R
LONG PRAIRIE   FAIR      73  46  38 NW10G20   29.77R
LITTLE FALLS   CLEAR     75  43  31 N6        29.76R
LITCHFIELD     PTCLDY    82  48  30 NW17G23   29.72R
BUFFALO        CLOUDY    82  49  31 NW9       29.69R
MAPLE LAKE     CLOUDY    82  54  37 NW12      29.69R
HUTCHINSON     CLEAR     83  54  36 NW14      29.71R HAZE
$$
MNZ037-044-045-052-053-070200-
   East Central Minnesota

CITY           SKY/WX    TMP DP  RH WIND       PRES   REMARKS
PRINCETON      CLOUDY    81  48  32 N12G18    29.70R
MORA           CLOUDY    72  54  53 NW10      29.72R
CAMBRIDGE        N/A     81  57  44 N14G20    29.67R
RUSH CITY      CLOUDY    69  53  58 NW8       29.68S
MOOSE LAKE     CLOUDY    73  46  38 N12G17    29.69R
HINCKLEY       FAIR      77  54  44 NW10      29.69R
CLOQUET        CLOUDY    73  43  33 NW23G33   29.72R
MCGREGOR       CLEAR     70  46  43 NW14      29.75R
$$
MNZ071>073-080-081-089-090-097-098-070200-
   Southwest Minnesota

CITY           SKY/WX    TMP DP  RH WIND       PRES   REMARKS
MONTEVIDEO     CLOUDY    77  46  33 N15G24    29.79R
GRANITE FALLS  CLOUDY    79  47  32 NW17G24   29.78R
CANBY          CLOUDY    76  45  33 W16G24    29.85R
MARSHALL       CLOUDY    76  45  33 NW22G28   29.82R
REDWOOD FALLS  CLOUDY    83  47  28 NW15G23   29.72R
OLIVIA         CLOUDY    73  43  33 NW16G24   29.73R
PIPESTONE      PTCLDY    77  45  31 N16G28    29.81R
WINDOM         PTCLDY    81  45  28 CALM      29.75R
WORTHINGTON    PTCLDY    81  50  33 W13       29.78S
JACKSON        CLEAR     82  39  21 W15       29.76S
TRACY          CLOUDY    76  47  34 NW26G36   29.82R
SLAYTON        CLOUDY    79  47  32 NW23G35   29.79R
$$
MNZ065>067-074>077-082>085-091>093-070200-
   South Central Minnesota

CITY           SKY/WX    TMP DP  RH WIND       PRES   REMARKS
MANKATO        PTCLDY    84  43  23 NW7       29.70R
NEW ULM        PTCLDY    81  45  28 W7        29.70R
ST JAMES       CLEAR     75  43  31 W9        29.72R
FAIRMONT       CLEAR     82  39  21 W14       29.73S
GLENCOE        CLOUDY    83  53  35 W3        29.68S
FARIBAULT      PTCLDY    82  50  32 W8        29.69R
OWATONNA       CLOUDY    81  45  28 SW9       29.69F
WASECA         MOCLDY    82  46  28 W13       29.71S
ALBERT LEA     PTCLDY    84  43  23 SW13G21   29.71F
$$
MNZ078>079-086>088-094>096-070200-
   Southeast Minnesota

CITY           SKY/WX    TMP DP  RH WIND       PRES   REMARKS
ROCHESTER      CLEAR     80  46  30 SW17      29.70F
RED WING       CLOUDY    84  46  26 NW6       29.62S
STANTON        CLOUDY    83  50  31 W13       29.65R
DODGE CENTER   PTCLDY    81  45  28 SW17      29.71R
WINONA         PTCLDY    82  41  23 SW6       29.67F
AUSTIN         PTCLDY    82  45  26 SW13G18   29.72F
PRESTON        CLEAR     80  42  25 SW12G20   29.73F
$$
ABBREVIATIONS USED IN REMARKS
   TC - TEMPERATURES IN CELSIUS
  WCI - WIND CHILL INDEX
   HX - HEAT INDEX
  VSB - VISIBILITY
$$




USA.gov is the U.S. government's official web portal to all federal, state and local government web resources and services.